HULIANWANG DIGUI-94

导读 | 豆包AI

HULIANWANG DIGUI-94是中国于2025年10月16日发射的卫星,属于低轨互联网星座组网卫星,承担着推动全球高速互联网络布局的重要使命。该卫星搭载先进通信载荷,将进一步完善中国低轨卫星通信网络建设,为全球用户提供稳定、高效的宽带互联网服务,助力天地一体化信息网络构建,推动卫星互联网产业发展。

基本信息
目录编号:
66002
目录名称:
HULIANWANG DIGUI-94
国际标识:
2025-231H
轨道中心:
EARTH
卫星名称:
HULIANWANG DIGUI-94
卫星全名:
HULIANWANG DIGUI-94
卫星状态:
在轨 (已飞行221 天)
发射日期:
2025-10-16 UTC
国别 :
中国 (CN)
星等 :
--
轨道信息
数据来源 国际轨道数据 AOE轨道数据
星历时间 2026-05-24T09:35:03+0800
23小时前
查看轨道信息
2026-05-23T03:00:00+0800
2天前
查看轨道信息
半长轴 7527.447km 7527.448km
偏心率 0.0000947 0.0000944
轨道倾角 50.006° 50.006°
近地点辐角 147.179° 138.542°
升交点赤经 262.103° 266.674°
平近点角 212.914° 239.325°
近地点 1148.597km 1148.6km
远地点 1150.023km 1150.022km
周期 108.326分钟 108.326分钟
每日圈数 13.293252 13.293249
详细信息
使用方式:
暂无
2D轨道图
3D轨道图
轨道高度分析图
轨道倾角分析图
轨道综合分析图
查看轨道综合分析图